Погода в Атяшеве-Селе

Россия / Республика Мордовия     54°35′27″N   46°07′34″E
темп.,
°C
ветер,
м/с
пор.,
м/с
влажн.,
%
обл.,
%
осадки,
мм/ч
давл.,
гПа
погр.,
м
11 апреля, вс
вс1100:00+1с26100100 0.0 1025180
03:00+1с28100100 0.0 1026208
06:00+1с28100100 0.0 1027246
09:00+2с26100100 0.0 1030264
12:00+4с4699100 0.0 1030300
15:00+5ссв3795100 1.2 1031327
18:00+4св3898100 2.8 1032243
21:00+3св51097100 3.4 1033241
12 апреля, пн
пн1200:00+3св51198100 1.8 1033260
03:00+2св5998100 2.9 1034248
06:00+3св51198100 1.1 1035302
09:00+4всв51196100 1.1 1035333
12:00+8в5994100 0.0 1035431
15:00+10в5785100 0.0 1034501
18:00+9всв479381 0.0 1034183
21:00+6в3897100 0.0 1034152
13 апреля, вт
вт1300:00+6в229598 0.0 103435
03:00+6вюв229097 0.0 103414
06:00+7юв2288100 0.0 103318
09:00+12ююв477355 0.0 1033291
12:00+16ююв574749 0.0 10321001
15:00+17ююв56385 0.0 10311181
18:00+14юв36565 0.0 103091
21:00+10ююв33645 0.0 103132
14 апреля, ср
ср1400:00+8ююв22685 0.0 103014
03:00+7ююв227321 0.0 103013
06:00+6ююв227594 0.0 103019
09:00+12ююв455786 0.0 1029274
12:00+16ююв45385 0.0 1027860
15:00+17ююв45320 0.0 10251127
18:00+14юв33523 0.0 102442
21:00+10ююв22625 0.0 102518
15 апреля, чт
чт1500:00+8ююв226710 0.0 102410
03:00+7ююв22725 0.0 102310
06:00+6ююв22755 0.0 102312
09:00+12ююв34595 0.0 1021282
12:00+16ю23475 0.0 10201071
15:00+18ююз23400 0.0 10181606
18:00+15з11515 0.0 101710
21:00+12ссв11594 0.0 101710